Wind_Speed
10 9 7 7 9 9 8 8 9 10 11 17 16 23 25 24 21 27 27 26 23 20 19 17 14 12 10 9 7 5 4 5 5 5 6 6 6 8 8 8 8 8 7
11 8 6 5 7 9 10 9 9 11 13 14 14 21 21 23 27 29 26 22 19 17 15 14 12 11 10 10 9 8 7 10 8 8 7 8 8 9 9 9 9 9 7
14 10 5 3 7 9 12 12 12 13 13 15 15 22 25 28 28 25 22 21 18 15 13 12 12 13 13 14 13 14 14 13 10 10 10 10 11 9 8 8 8 7 8
17 15 10 7 7 11 13 15 14 14 15 17 19 23 29 27 25 22 20 17 16 14 13 14 14 14 16 15 17 18 18 18 13 12 12 11 12 12 9 9 9 9 7
15 16 15 7 7 12 15 17 17 15 15 17 19 24 30 25 23 20 17 14 15 13 15 16 16 14 16 15 17 17 19 19 17 14 13 11 10 9 10 10 9 8 8
13 14 15 11 8 12 15 18 18 17 17 18 23 28 26 24 21 18 14 15 15 16 18 17 17 16 18 16 16 17 18 18 16 17 14 12 12 10 8 8 9 9 9
12 15 16 13 8 9 13 18 19 18 19 20 23 24 24 22 18 15 15 16 17 18 19 19 19 19 18 17 16 17 16 15 14 16 18 16 14 11 9 8 7 7 7
13 13 15 16 9 8 12 17 20 22 23 22 20 22 21 18 14 10 19 16 17 18 20 19 18 19 16 16 15 15 14 13 13 14 18 18 17 14 12 9 7 5 5
12 11 12 17 15 7 11 16 22 26 22 19 20 22 21 16 16 19 22 17 16 17 18 18 17 16 14 15 14 13 13 13 11 11 14 15 15 15 14 10 7 4 3
11 10 10 13 16 10 8 11 29 14 15 20 18 22 23 18 20 20 20 18 16 15 15 15 15 15 14 13 13 12 10 11 10 9 10 11 11 11 11 12 11 8 3
9 10 10 12 14 15 10 12 18 17 18 20 17 23 24 19 21 20 19 18 16 13 12 12 12 12 10 9 9 6 8 7 6 8 7 7 8 8 8 7 8 9 8
8 8 11 11 13 18 10 12 14 15 16 19 18 19 22 19 23 20 17 16 14 12 9 8 7 8 7 6 6 3 3 3 4 4 4 5 5 4 4 4 4 5 6
7 7 8 12 13 16 16 10 9 10 13 16 17 18 20 21 21 18 15 13 12 10 7 5 4 4 2 1 2 2 4 0 2 3 7 3 2 4 2 1 0 1 1
11 10 7 7 10 15 17 21 15 11 12 14 16 21 17 23 20 17 15 12 10 10 7 5 3 3 3 4 5 8 6 5 4 4 5 0 4 2 1 1 2 3 2
11 10 8 9 8 9 12 10 15 14 17 16 13 14 23 20 19 13 13 12 10 8 8 7 6 6 7 8 8 9 10 9 6 6 6 5 6 5 6 4 4 4 5
10 8 8 8 8 8 9 10 8 15 20 19 15 14 16 22 13 11 10 9 7 6 6 6 6 7 9 9 10 11 12 12 12 11 8 7 8 9 8 6 5 4 6
13 8 7 5 6 7 9 10 8 7 10 12 15 16 16 17 13 9 10 6 6 6 6 6 7 8 8 8 10 12 14 13 11 10 9 8 8 9 9 7 8 10 10
12 10 7 6 4 4 4 8 8 7 6 13 9 7 9 9 9 8 8 9 9 8 9 9 10 10 11 10 10 10 13 12 12 8 7 6 9 11 11 11 15 14 9
10 9 10 9 6 4 3 5 5 5 5 7 7 4 6 6 6 6 9 9 8 8 9 10 13 13 13 12 11 9 11 12 12 9 7 8 10 9 10 11 11 12 12
10 10 11 11 10 6 3 6 8 6 4 5 4 5 6 7 8 9 7 7 7 7 9 11 10 10 10 11 11 11 13 12 13 13 12 12 10 13 14 12 12 14 14
10 10 12 12 10 9 6 5 6 7 6 5 5 7 7 6 6 6 6 5 6 7 11 11 9 11 14 13 12 13 15 14 15 17 15 15 14 15 15 14 15 16 15
7 9 11 12 10 10 6 9 6 3 5 2 1 4 2 2 3 4 5 6 7 8 10 10 11 13 18 16 12 14 15 16 15 14 16 16 15 19 18 19 13 12 16
7 5 10 12 11 12 7 8 7 5 4 2 2 3 2 0 1 3 4 5 7 9 10 11 14 16 18 19 17 16 18 17 17 16 15 13 13 13 16 13 16 12 12
5 3 6 12 12 10 9 7 5 5 3 2 3 3 1 1 2 4 6 6 7 9 12 13 15 16 17 20 22 22 22 22 21 19 17 17 14 14 14 15 13 10 12
6 7 4 5 10 8 5 6 4 4 3 3 0 1 1 1 2 3 6 9 8 12 13 12 13 13 13 12 14 15 16 18 21 23 18 18 15 14 15 11 13 11 8
2 4 6 3 5 6 3 2 2 3 3 2 2 2 1 3 4 6 7 8 9 12 13 14 15 14 14 13 13 14 15 16 17 18 16 13 13 13 17 17 18 17 19
Wind_Direction
96 97 102 121 137 130 129 130 125 125 126 140 149 137 133 139 138 134 133 131 128 131 132 130 128 127 118 116 121 112 106 110 117 123 137 143 159 166 161 162 163 178 184
94 87 96 135 144 148 155 144 133 129 128 139 144 141 135 142 138 133 131 130 130 130 129 128 127 120 116 106 101 102 102 87 85 103 126 146 156 156 156 162 172 174 173
78 67 61 134 153 165 164 154 145 136 132 131 138 141 138 138 134 132 133 133 132 131 128 123 119 114 114 107 104 92 87 89 92 106 117 137 144 141 150 159 159 170 173
70 54 51 94 143 168 164 161 153 145 135 130 134 136 138 135 135 135 135 134 129 123 122 119 115 116 110 106 101 92 90 89 91 104 113 126 135 142 145 150 152 155 159
60 49 48 74 156 167 165 163 156 149 140 136 144 140 137 137 136 136 135 132 131 123 120 119 120 116 112 108 99 97 93 90 89 92 108 119 119 125 138 143 137 140 149
58 53 52 60 126 154 164 163 160 154 144 138 140 140 138 140 140 142 138 134 132 124 120 121 119 117 106 101 99 96 91 88 87 90 93 108 115 105 97 133 134 138 147
67 63 49 57 100 147 163 167 164 160 148 146 144 144 145 145 144 142 143 134 131 129 123 121 119 112 110 109 106 97 89 90 90 84 83 87 98 104 99 105 121 129 134
77 70 55 59 85 131 163 172 173 169 155 150 147 150 151 145 145 139 135 136 132 130 124 124 118 117 116 112 103 97 94 88 87 87 86 87 91 92 92 96 97 111 142
84 80 69 61 60 104 158 179 192 174 141 147 152 154 149 150 136 132 135 138 136 133 129 126 121 118 116 117 113 104 98 96 87 89 93 92 92 94 97 95 94 87 115
88 80 74 64 60 64 162 188 137 132 148 153 150 163 154 153 146 139 138 142 142 137 128 126 123 123 126 124 127 111 118 105 96 90 98 99 99 101 103 102 95 85 87
79 79 73 73 70 65 133 126 164 158 161 164 161 158 160 158 151 144 143 145 142 139 135 134 132 129 129 140 149 143 125 101 105 98 86 90 97 100 96 91 95 90 80
80 77 80 77 64 66 99 136 142 143 150 169 157 163 157 158 150 149 146 146 143 147 145 138 127 117 121 111 147 162 161 123 15 82 73 85 89 88 88 99 87 86 86
94 99 89 76 74 73 76 143 142 140 158 165 172 156 164 167 149 143 144 148 148 148 149 150 134 123 102 73 215 227 196 156 341 294 1 356 138 124 86 31 87 135 93
72 83 91 81 79 90 87 89 101 144 155 167 175 157 157 147 147 145 144 146 155 156 159 180 190 209 219 259 287 281 273 279 271 287 332 56 298 307 152 227 268 268 233
69 65 72 73 76 103 109 93 75 113 149 141 149 145 137 142 137 140 148 151 166 164 170 194 207 229 246 254 266 274 279 284 264 238 274 265 279 282 253 276 276 284 268
69 63 64 73 78 94 106 107 101 84 102 120 125 149 137 146 147 157 159 162 184 192 209 229 241 252 262 263 269 269 273 273 274 260 257 272 269 277 250 259 248 276 262
59 65 61 69 80 85 108 119 105 80 83 114 120 126 146 154 159 169 191 203 228 232 242 250 257 265 267 265 268 277 277 275 266 262 266 269 243 260 243 236 260 258 252
54 66 62 54 69 98 126 120 120 107 111 103 118 134 161 180 196 205 213 230 249 261 263 269 270 275 281 273 273 271 268 262 271 267 277 262 244 248 251 255 274 269 265
50 58 70 56 68 93 162 145 147 151 157 172 200 189 186 196 211 228 232 239 248 257 268 274 275 273 270 275 280 279 267 271 279 284 284 276 263 239 265 275 278 265 266
80 70 69 62 62 78 170 187 192 185 217 204 207 230 213 211 212 223 231 235 246 261 267 276 290 286 278 280 274 272 268 275 277 275 278 270 260 261 264 264 274 262 271
87 82 77 72 61 57 78 130 178 169 196 195 193 220 224 223 231 243 241 252 269 295 305 292 288 289 284 271 284 275 274 276 284 275 272 278 269 265 267 272 268 258 266
99 85 82 80 66 48 65 87 104 143 142 205 213 262 238 266 263 243 256 275 297 310 314 291 294 296 297 310 286 281 276 278 280 282 278 279 283 278 264 264 267 274 280
112 62 74 78 73 57 51 52 65 75 77 62 159 167 181 227 298 300 309 313 305 309 309 310 305 300 293 293 288 285 282 280 278 275 271 277 278 289 252 244 279 274 277
81 110 31 60 67 62 50 44 61 82 112 170 175 176 183 304 299 312 315 309 313 315 322 316 310 305 294 286 285 284 282 282 279 275 271 267 266 271 258 258 253 256 261
40 55 6 33 55 64 53 54 71 69 69 148 127 26 342 349 311 285 290 301 316 319 320 318 318 320 318 308 294 286 282 280 278 279 274 260 254 247 243 253 230 236 247
58 38 42 24 358 42 51 98 94 106 115 135 174 183 243 274 271 274 286 281 287 296 310 315 317 320 320 321 315 306 295 288 279 277 274 259 253 247 236 251 244 247 255
Height
3157 3156 3157 3157 3158 3157 3159 3160 3161 3162 3163 3164 3165 3167 3169 3172 3175 3176 3178 3180 3183 3185 3187 3189 3190 3192 3193 3194 3194 3195 3196 3196 3196 3196 3197 3198 3199 3200 3201 3202 3203 3204 3205
3157 3158 3158 3158 3158 3159 3159 3161 3163 3164 3165 3167 3167 3169 3172 3174 3178 3180 3181 3183 3186 3188 3190 3191 3193 3193 3194 3194 3195 3195 3196 3196 3196 3197 3197 3199 3200 3202 3203 3204 3204 3204 3205
3158 3158 3158 3158 3158 3159 3160 3162 3164 3166 3168 3168 3170 3172 3174 3177 3180 3182 3184 3186 3188 3190 3193 3194 3194 3195 3197 3196 3197 3196 3196 3196 3197 3198 3199 3200 3201 3203 3203 3204 3204 3205 3206
3160 3160 3158 3158 3158 3159 3160 3163 3165 3168 3170 3170 3173 3175 3177 3180 3183 3185 3187 3189 3190 3192 3194 3195 3197 3198 3198 3199 3199 3198 3198 3198 3199 3200 3201 3201 3202 3203 3204 3204 3205 3206 3207
3162 3161 3160 3159 3158 3160 3162 3164 3167 3169 3171 3172 3176 3177 3179 3182 3184 3187 3190 3191 3192 3194 3196 3197 3199 3200 3201 3201 3201 3201 3201 3201 3202 3202 3202 3202 3203 3204 3205 3205 3206 3206 3207
3165 3164 3163 3160 3161 3161 3163 3166 3168 3171 3172 3174 3178 3180 3181 3184 3186 3189 3191 3193 3194 3196 3198 3199 3200 3202 3203 3204 3204 3204 3204 3204 3204 3204 3203 3203 3203 3205 3205 3205 3206 3207 3207
3166 3165 3164 3163 3163 3164 3165 3167 3170 3172 3174 3177 3179 3181 3184 3186 3188 3191 3193 3195 3196 3198 3200 3201 3202 3204 3205 3206 3207 3207 3207 3207 3208 3207 3205 3204 3204 3205 3206 3207 3208 3208 3209
3168 3168 3167 3166 3166 3166 3167 3169 3170 3171 3174 3177 3180 3184 3187 3189 3190 3192 3195 3197 3199 3201 3202 3204 3205 3206 3207 3208 3208 3208 3209 3210 3210 3209 3207 3207 3206 3206 3207 3208 3209 3210 3210
3171 3170 3170 3169 3169 3169 3168 3169 3168 3158 3171 3177 3180 3186 3189 3192 3193 3194 3196 3199 3202 3203 3205 3207 3207 3208 3208 3209 3210 3210 3210 3210 3211 3211 3210 3209 3209 3209 3208 3209 3210 3210 3211
3174 3173 3173 3173 3172 3171 3170 3172 3131 3165 3174 3180 3183 3187 3191 3194 3195 3197 3199 3200 3203 3206 3208 3209 3210 3210 3210 3211 3211 3211 3212 3212 3212 3213 3212 3211 3211 3211 3210 3209 3209 3210 3211
3177 3177 3177 3176 3175 3174 3172 3175 3173 3175 3179 3183 3184 3188 3192 3195 3197 3199 3201 3203 3205 3207 3209 3211 3211 3212 3212 3212 3213 3214 3214 3214 3213 3213 3213 3212 3213 3213 3213 3212 3211 3211 3211
3179 3180 3180 3179 3178 3178 3176 3176 3178 3179 3182 3185 3188 3190 3194 3197 3198 3201 3204 3205 3207 3209 3211 3212 3213 3213 3214 3214 3214 3215 3215 3215 3215 3214 3213 3213 3213 3214 3214 3213 3214 3213 3213
3182 3182 3183 3182 3182 3182 3181 3180 3182 3184 3186 3187 3188 3191 3194 3197 3201 3204 3206 3208 3209 3211 3212 3213 3214 3214 3214 3215 3215 3216 3216 3216 3215 3214 3213 3214 3213 3213 3213 3214 3214 3214 3214
3184 3185 3185 3185 3185 3185 3186 3186 3186 3187 3187 3188 3190 3192 3195 3197 3204 3206 3207 3209 3211 3212 3212 3213 3214 3215 3215 3215 3215 3215 3215 3215 3215 3215 3214 3213 3213 3212 3212 3212 3213 3213 3213
3187 3187 3187 3187 3187 3188 3190 3191 3191 3189 3187 3188 3191 3193 3197 3203 3205 3207 3209 3210 3212 3212 3213 3214 3215 3214 3214 3214 3215 3215 3214 3213 3214 3214 3213 3213 3212 3211 3211 3212 3212 3212 3213
3189 3190 3190 3190 3190 3191 3192 3194 3195 3195 3193 3193 3195 3197 3200 3205 3207 3209 3211 3212 3213 3213 3213 3214 3214 3214 3214 3213 3213 3213 3213 3212 3213 3213 3212 3212 3211 3210 3210 3211 3211 3211 3211
3192 3192 3192 3192 3192 3194 3195 3197 3198 3199 3198 3199 3200 3202 3206 3207 3209 3210 3211 3212 3213 3213 3214 3214 3213 3214 3213 3213 3212 3211 3211 3211 3211 3212 3211 3211 3210 3210 3210 3210 3209 3207 3209
3194 3195 3195 3195 3195 3196 3196 3198 3200 3202 3203 3204 3204 3206 3208 3209 3210 3211 3211 3212 3213 3214 3214 3214 3213 3212 3212 3212 3211 3211 3210 3210 3209 3210 3210 3210 3209 3209 3209 3210 3208 3208 3208
3196 3197 3197 3196 3197 3198 3198 3198 3200 3202 3204 3206 3206 3208 3209 3210 3211 3211 3212 3213 3214 3214 3214 3214 3213 3212 3211 3211 3210 3210 3210 3209 3208 3208 3208 3208 3207 3207 3206 3206 3206 3205 3206
3198 3199 3198 3198 3199 3199 3199 3200 3200 3202 3203 3205 3206 3207 3209 3210 3211 3212 3212 3213 3214 3214 3213 3213 3211 3211 3210 3209 3209 3208 3207 3207 3207 3207 3206 3205 3205 3205 3203 3203 3202 3203 3203
3199 3200 3200 3200 3200 3200 3200 3201 3202 3204 3205 3206 3207 3209 3210 3210 3210 3210 3211 3212 3213 3213 3212 3211 3209 3209 3209 3207 3207 3206 3205 3205 3204 3204 3203 3202 3203 3203 3202 3201 3199 3199 3200
3199 3200 3201 3201 3202 3201 3202 3201 3203 3204 3205 3205 3207 3209 3208 3209 3209 3209 3210 3210 3210 3211 3210 3210 3208 3208 3206 3200 3204 3203 3203 3204 3203 3202 3201 3200 3200 3200 3199 3198 3198 3196 3196
3200 3202 3201 3202 3202 3202 3202 3203 3204 3204 3205 3206 3207 3208 3209 3210 3210 3211 3211 3211 3212 3211 3211 3209 3208 3207 3206 3204 3204 3202 3201 3200 3199 3199 3199 3198 3197 3196 3195 3195 3195 3194 3195
3201 3202 3203 3202 3202 3203 3204 3204 3205 3206 3206 3207 3207 3209 3209 3210 3211 3211 3212 3212 3211 3211 3209 3207 3205 3203 3202 3201 3200 3199 3198 3197 3195 3195 3195 3195 3194 3193 3191 3192 3193 3192 3193
3202 3202 3203 3204 3204 3204 3205 3206 3206 3206 3207 3208 3209 3208 3209 3210 3210 3211 3210 3210 3210 3208 3207 3204 3203 3201 3200 3198 3195 3193 3192 3192 3191 3189 3190 3190 3190 3190 3189 3190 3190 3191 3192
3203 3203 3203 3204 3204 3204 3206 3207 3207 3207 3207 3207 3208 3208 3208 3208 3208 3208 3208 3208 3207 3206 3205 3204 3202 3200 3199 3197 3194 3192 3190 3188 3187 3186 3186 3186 3186 3187 3188 3189 3190 3190 3190